CW6488 Weather Reports


time (UTC)temp
F
wind
direction
speed
knots
gust
knots
rain 1hr
in
rain 24hr
in
rain mn
in
humidity
%
barometer
mb
20260504081517 55 101 0.0 0.0 0.00 0.00 0.00 89 1016.5
20260504044544 59 101 0.0 0.0 0.00 0.00 0.00 86 1017.8
20260504043014 59 101 0.0 0.0 0.00 0.00 0.00 86 1017.8
20260504041544 60 101 0.0 0.0 0.00 0.00 0.00 86 1017.8
20260504040044 60 101 0.0 0.0 0.00 0.00 0.00 84 1017.8
20260504034513 60 101 0.0 0.0 0.00 0.00 0.00 84 1017.8
20260504033044 61 101 0.0 0.0 0.00 0.00 0.00 83 1017.8
20260504031543 61 101 0.0 0.0 0.00 0.00 0.00 82 1017.9
20260504024543 63 101 0.0 0.0 0.00 0.00 0.00 80 1017.6
20260504023013 63 101 0.0 0.0 0.00 0.00 0.00 79 1017.5
20260504021543 64 101 0.0 0.0 0.00 0.00 0.00 77 1017.4
20260504020043 65 101 0.0 0.0 0.00 0.00 0.00 75 1017.2
20260504014542 66 101 0.0 0.0 0.00 0.00 0.00 74 1017.1
20260504013042 67 101 0.0 0.0 0.00 0.00 0.00 72 1017.0
20260504011542 68 101 0.0 0.0 0.00 0.00 0.00 69 1016.8
20260504010042 70 101 0.0 0.0 0.00 0.00 0.00 66 1016.7
20260504004542 71 101 0.0 0.0 0.00 0.00 0.00 63 1016.7
20260504003049 73 115 0.0 0.0 0.00 0.00 0.00 62 1016.6
20260504000041 74 115 0.0 0.0 0.00 0.00 0.00 57 1016.6
20260503234541 75 114 0.0 0.0 0.00 0.00 0.00 56 1016.7
20260503233041 75 146 0.9 0.0 0.00 0.00 0.00 55 1016.7
20260503231541 76 146 0.0 0.0 0.00 0.00 0.00 55 1016.7
20260503230040 76 182 0.0 0.0 0.00 0.00 0.00 53 1016.7
20260503224540 77 76 0.0 0.0 0.00 0.00 0.00 52 1016.7
20260503223040 77 355 0.9 0.0 0.00 0.00 0.00 52 1016.8
20260503221540 76 278 0.9 0.0 0.00 0.00 0.00 51 1016.9
20260503220040 76 295 2.6 0.0 0.00 0.00 0.00 50 1017.0
20260503214539 77 69 0.9 0.0 0.00 0.00 0.00 48 1017.3
20260503213039 77 214 3.5 0.0 0.00 0.00 0.00 43 1017.5
20260503211538 77 272 3.5 0.0 0.00 0.00 0.00 44 1017.7
20260503210039 76 215 0.0 0.0 0.00 0.00 0.00 44 1017.9
20260503204538 77 247 1.7 0.0 0.00 0.00 0.00 49 1018.0
20260503203038 76 260 2.6 0.0 0.00 0.00 0.00 48 1018.2
20260503201538 77 119 0.9 0.0 0.00 0.00 0.00 46 1018.4
20260503200038 77 144 1.7 0.0 0.00 0.00 0.00 47 1018.9
20260503194538 77 328 2.6 0.0 0.00 0.00 0.00 49 1019.0
20260503193037 77 119 0.0 0.0 0.00 0.00 0.00 42 1019.2
20260503191537 77 136 0.9 0.0 0.00 0.00 0.00 42 1019.4
20260503190037 77 96 0.9 0.0 0.00 0.00 0.00 49 1019.6
20260503183036 77 180 1.7 0.0 0.00 0.00 0.00 44 1020.0
20260503181536 77 121 2.6 0.0 0.00 0.00 0.00 44 1020.3
20260503180036 77 302 2.6 0.0 0.00 0.00 0.00 45 1020.5
20260503174536 77 65 0.9 0.0 0.00 0.00 0.00 47 1020.4
20260503173036 76 174 0.9 0.0 0.00 0.00 0.00 44 1020.6
20260503171535 75 130 1.7 0.0 0.00 0.00 0.00 45 1021.0